Energy, IL

6:14 PM CDT on September 28, 2016 (GMT -0500)
Williamson County Regional

Weather History for KMWA - September, 2013

Change the Weather History Date:

Monday, September 23, 2013

  Actual Average Record
Temperature  
Mean Temperature 64 °F -  
Max Temperature 78 °F 76 °F 96 °F (1980)
Min Temperature 50 °F 52 °F 33 °F (1983)
Degree Days  
Heating Degree Days 1    
Growing Degree Days 14 (Base 50)    
Moisture  
Dew Point 51 °F    
Average Humidity 75    
Maximum Humidity 100    
Minimum Humidity 28    
Precipitation  
Precipitation 0.00 in - - ()
Sea Level Pressure  
Sea Level Pressure 29.99 in    
Wind  
Wind Speed 3 mph (East)    
Max Wind Speed 12 mph    
Max Gust Speed -    
Visibility 10 miles    
Events      
Averages and records for this station are not official NWS values.
T = Trace of Precipitation, MM = Missing Value Source: NWS Daily Summary

Daily Weather History Graph

Daily Weather History Graph

Search for Another Location

Airport or City:

Trip Planner

Search our weather history database for the weather conditions in past years. The results will help you decide how hot, cold, wet, or windy it might be!

Date:

Astronomy

Sep. 23, 2013 Rise Set
Actual Time 6:44 AM CDT 6:51 PM CDT
Civil Twilight 6:18 AM CDT 7:17 PM CDT
Nautical Twilight 5:48 AM CDT 7:47 PM CDT
Astronomical Twilight 5:17 AM CDT 8:18 PM CDT
Moon 9:28 PM CDT (9/23) 10:58 AM CDT (9/23)
Length of Visible Light 12h 58m
Length of Day
12h 06m
Waning Gibbous, 81% of the Moon is Illuminated
Sep 23
Waning Gibbous
Sep 26
Last Quarter
Oct 4
New
Oct 11
First Quarter
Oct 18
Full

Hourly Weather History & Observations

Time (CDT) Temp. Dew Point Humidity Pressure Visibility Wind Dir Wind Speed Gust Speed Precip Events Conditions
12:15 AM 53.6 °F 51.8 °F 94% 29.98 in 10.0 mi ENE 3.5 mph - N/A   Clear
12:35 AM 57.2 °F 51.8 °F 82% 29.98 in 10.0 mi ENE 3.5 mph - N/A   Clear
12:55 AM 57.2 °F 50.0 °F 77% 29.98 in 10.0 mi ENE 4.6 mph - N/A   Clear
1:15 AM 57.2 °F 51.8 °F 82% 29.99 in 10.0 mi Calm Calm - N/A   Clear
1:35 AM 53.6 °F 50.0 °F 88% 29.99 in 10.0 mi Calm Calm - N/A   Clear
1:55 AM 53.6 °F 51.8 °F 94% 29.99 in 10.0 mi Calm Calm - N/A   Clear
2:15 AM 53.6 °F 50.0 °F 88% 29.99 in 10.0 mi Calm Calm - N/A   Clear
2:35 AM 51.8 °F 50.0 °F 94% 29.99 in 10.0 mi Calm Calm - N/A   Clear
2:55 AM 51.8 °F 50.0 °F 94% 29.99 in 10.0 mi Calm Calm - N/A   Clear
3:15 AM 51.8 °F 50.0 °F 94% 29.99 in 10.0 mi Calm Calm - N/A   Clear
3:35 AM 51.8 °F 50.0 °F 94% 29.99 in 5.0 mi Calm Calm - N/A   Clear
3:55 AM 51.8 °F 50.0 °F 94% 29.99 in 10.0 mi Calm Calm - N/A   Clear
4:15 AM 50.0 °F 50.0 °F 100% 29.99 in 7.0 mi Calm Calm - N/A   Clear
4:35 AM 50.0 °F 50.0 °F 100% 29.99 in 2.0 mi Calm Calm - N/A   Clear
4:55 AM 51.8 °F 51.8 °F 100% 30.00 in 10.0 mi Calm Calm - N/A   Clear
5:15 AM 51.8 °F 50.0 °F 94% 30.00 in 10.0 mi Calm Calm - N/A   Clear
5:35 AM 50.0 °F 50.0 °F 100% 30.01 in 2.5 mi Calm Calm - N/A   Clear
5:55 AM 50.0 °F 50.0 °F 100% 30.01 in 0.8 mi Calm Calm - N/A   Mist
6:15 AM 50.0 °F 50.0 °F 100% 30.02 in 3.0 mi Calm Calm - N/A   Clear
6:52 AM 50.0 °F 50.0 °F 100% 30.03 in 7.0 mi Calm Calm - N/A   Clear
7:52 AM 53.6 °F 53.6 °F 100% 30.05 in 10.0 mi Calm Calm - N/A   Clear
8:52 AM 60.8 °F 55.4 °F 82% 30.05 in 15.0 mi SE 5.8 mph - N/A   Clear
9:53 AM 66.2 °F 51.8 °F 60% 30.06 in 20.0 mi SE 9.2 mph - N/A   Clear
10:53 AM 69.8 °F 50.0 °F 49% 30.05 in 20.0 mi ESE 11.5 mph - N/A   Clear
11:53 AM 73.4 °F 50.0 °F 44% 30.04 in 20.0 mi East 11.5 mph - N/A   Clear
12:50 PM 73.4 °F 50.0 °F 44% 30.02 in 25.0 mi East 9.2 mph - N/A   Clear
1:55 PM 77.0 °F 46.4 °F 34% 29.98 in 25.0 mi ENE 9.2 mph - N/A   Clear
3:58 PM 78.8 °F 42.8 °F 28% 29.97 in 25.0 mi SE 9.2 mph - N/A   Clear
5:58 PM 77.0 °F 44.6 °F 32% 29.96 in 25.0 mi East 9.2 mph - N/A   Clear
6:35 PM 73.4 °F 48.2 °F 41% 29.97 in 10.0 mi East 3.5 mph - N/A   Clear
6:55 PM 71.6 °F 50.0 °F 46% 29.97 in 10.0 mi Calm Calm - N/A   Clear
7:15 PM 66.2 °F 51.8 °F 60% 29.97 in 10.0 mi Calm Calm - N/A   Clear
7:35 PM 64.4 °F 51.8 °F 64% 29.97 in 10.0 mi Calm Calm - N/A   Clear
7:55 PM 62.6 °F 53.6 °F 72% 29.97 in 10.0 mi ENE 3.5 mph - N/A   Clear
8:15 PM 62.6 °F 53.6 °F 72% 29.98 in 10.0 mi ESE 3.5 mph - N/A   Clear
8:35 PM 62.6 °F 51.8 °F 68% 29.98 in 10.0 mi Calm Calm - N/A   Clear
8:55 PM 60.8 °F 51.8 °F 72% 29.98 in 10.0 mi Calm Calm - N/A   Clear
9:15 PM 64.4 °F 51.8 °F 64% 29.98 in 10.0 mi East 3.5 mph - N/A   Clear
9:35 PM 64.4 °F 51.8 °F 64% 29.98 in 10.0 mi ESE 3.5 mph - N/A   Clear
9:55 PM 64.4 °F 51.8 °F 64% 29.98 in 10.0 mi East 4.6 mph - N/A   Clear
10:15 PM 64.4 °F 51.8 °F 64% 29.98 in 10.0 mi East 3.5 mph - N/A   Clear
10:35 PM 64.4 °F 51.8 °F 64% 29.98 in 10.0 mi East 3.5 mph - N/A   Clear
10:55 PM 62.6 °F 51.8 °F 68% 29.98 in 10.0 mi East 4.6 mph - N/A   Clear
11:15 PM 60.8 °F 51.8 °F 72% 29.98 in 10.0 mi ESE 4.6 mph - N/A   Clear
11:35 PM 60.8 °F 53.6 °F 77% 29.98 in 10.0 mi East 3.5 mph - N/A   Clear
11:55 PM 60.8 °F 53.6 °F 77% 29.98 in 10.0 mi East 3.5 mph - N/A   Clear